This demonstration page uses our WeatherBlox Daily Observations layout. Learn more.

Left ArrowRight Arrow

39.01783, -85.05884

Hourly Observations for October 10, 2018

Temp ( °F °C ) Dew Point ( °F °C ) Humidity (%) Winds ( mph kmh ) Pressure ( in mb ) Visibility ( mi km ) Precip ( " mm )
12:52 am 00:52 Mostly Clear 71 21.7 65 18.3 81 81 SSE 12 19 29.96 1015 10 16 N/A
1:52 am 01:52 Partly Cloudy 70 21.1 65 18.3 84 84 SE 10 17 29.95 1014 10 16 N/A
2:52 am 02:52 Mostly Cloudy 69 20.6 65 18.3 87 87 SE 8 13 29.94 1014 10 16 N/A
3:52 am 03:52 Mostly Cloudy 70 21.1 65 18.3 84 84 SE 9 15 29.93 1014 10 16 N/A
4:52 am 04:52 Mostly Cloudy 69 20.6 65 18.3 87 87 SE 7 11 29.92 1013 10 16 N/A
5:52 am 05:52 Cloudy 69 20.6 65 18.3 87 87 SE 9 15 29.91 1013 10 16 N/A
6:52 am 06:52 Cloudy 69 20.6 65 18.3 87 87 SE 9 15 29.91 1013 10 16 N/A
7:52 am 07:52 Mostly Cloudy 70 21.1 64 17.8 82 82 SSE 10 17 29.90 1013 10 16 N/A
8:52 am 08:52 Mostly Cloudy 71 21.7 65 18.3 81 81 SSE 12 19 29.89 1012 10 16 N/A
9:52 am 09:52 Cloudy 73 22.8 65 18.3 76 76 SSE 10 17 29.89 1012 10 16 N/A
10:52 am 10:52 Cloudy 73 22.8 65 18.3 76 76 SE 13 20 29.87 1011 10 16 N/A
11:52 am 11:52 Cloudy with Light Rain 71 21.7 67 19.4 87 87 SSE 15 24 29.86 1011 8 13 0.01 0.25
12:52 pm 12:52 Cloudy with Light Rain 71 21.7 68 20 90 90 SSE 10 17 29.84 1011 7 11 N/A
1:52 pm 13:52 Cloudy 73 22.8 69 20.6 87 87 SSE 10 17 29.81 1010 10 16 N/A
1:59 pm 13:59 Cloudy 73 22.8 68 20 84 84 SE 14 22 29.80 1009 10 16 N/A
2:20 pm 14:20 Cloudy 73 22.8 68 20 84 84 SSE 17 28 29.80 1009 10 16 N/A
2:33 pm 14:33 Cloudy 74 23.3 68 20 82 82 SE 13 20 29.77 1008 10 16 N/A
2:52 pm 14:52 Cloudy 74 23.3 68 20 82 82 SE 15 24 29.77 1008 10 16 N/A
3:25 pm 15:25 Cloudy 74 23.3 68 20 82 82 SE 13 20 29.77 1008 10 16 N/A
3:46 pm 15:46 Cloudy 75 24 70 21 83 83 SE 14 22 29.74 1007 10 16 N/A
3:52 pm 15:52 Cloudy 75 23.9 69 20.6 82 82 SE 12 19 29.75 1007 10 16 N/A
4:52 pm 16:52 Cloudy 76 24.4 69 20.6 79 79 SE 10 17 29.73 1007 10 16 N/A
5:52 pm 17:52 Cloudy 76 24.4 70 21.1 82 82 SSE 7 11 29.72 1006 10 16 N/A
6:52 pm 18:52 Cloudy 75 23.9 70 21.1 84 84 SSE 7 11 29.72 1007 10 16 N/A
7:36 pm 19:36 Cloudy with Heavy Rain 74 23.3 71 21.7 91 91 WSW 5 7 29.74 1007 3 5 0.05 1.27
7:47 pm 19:47 Cloudy with Rain 73 23 72 22 94 94 SSW 6 9 29.74 1007 4 6 0.11 2.79
7:52 pm 19:52 Cloudy with Light Rain 73 22.8 72 22.2 96 96 SSW 6 9 29.73 1007 7 11 0.12 3.05
8:14 pm 20:14 Cloudy with Heavy Rain 73 22.8 72 22.2 96 96 S 8 13 29.74 1007 3 4 0.05 1.27
8:21 pm 20:21 Cloudy with Rain 73 22.8 72 22.2 96 96 SSW 7 11 29.74 1007 5 8 0.09 2.29
8:52 pm 20:52 Cloudy 72 22.2 71 21.7 97 97 SSW 7 11 29.74 1007 9 14 0.13 3.30
9:52 pm 21:52 Cloudy 72 22.2 71 21.7 97 97 SSW 5 7 29.73 1007 10 16 N/A
10:52 pm 22:52 Mostly Cloudy 71 21.7 70 21.1 96 96 S 6 9 29.74 1007 10 16 N/A
11:52 pm 23:52 Mostly Cloudy 70 21.1 70 21.1 100 100 SSW 6 9 29.74 1007 10 16 N/A

Powered by AerisWeather